Location: Namasale
(1.5000°N, 32.6167°E)
Time: 18:04:24
(UTC+00:00)

Vanguard 1 Rocket - Pass Details

Date: 28 April 2021
Orbit: 651 x 4225 km, 34.3° (Epoch: 17 May)

Event Time Altitude Azimuth Distance (km) Brightness Sun altitude
Rises 02:32:12 0° 223° (SW) 8,140 - -17.7°
Exits shadow 02:34:33 - 221° (SW) 7,824 11.7 -17.2°
Reaches altitude 10° 02:38:17 10° 217° (SW) 7,323 11.5 -16.3°
Maximum altitude 03:02:55 46° 149° (SSE) 4,668 11.1 -10.3°
Drops below altitude 10° 03:20:44 10° 81° (E) 5,581 13.2 -6.0°
Sets 03:24:28 0° 75° (ENE) 6,184 14.8 -5.1°
